This is the latest recevied weather packets stored in our database for station/object SQ6IUS-13. If no packets are shown the sender has not sent any weather packets the latest 10 day(s).
| Time | Temp. | Humidity | Pressure | Rain* | Wind** | Luminosity | Snow |
|---|---|---|---|---|---|---|---|
| 1777003203 | 2.78° C | 100% | 1017.5 hPa | - | - | - | - |
| 1777002303 | 2.78° C | 100% | 1017.4 hPa | - | - | - | - |
| 1777001403 | 2.78° C | 100% | 1017.5 hPa | - | - | - | - |
| 1777000505 | 2.78° C | 100% | 1017.4 hPa | - | - | - | - |
| 1776999605 | 2.78° C | 100% | 1017.4 hPa | - | - | - | - |
| 1776998706 | 2.22° C | 100% | 1017.4 hPa | - | - | - | - |
| 1776997807 | 2.22° C | 100% | 1017.4 hPa | - | - | - | - |
| 1776996908 | 2.78° C | 100% | 1017.5 hPa | - | - | - | - |
| 1776996009 | 2.78° C | 100% | 1017.5 hPa | - | - | - | - |
| 1776995110 | 3.33° C | 100% | 1017.6 hPa | - | - | - | - |
| 1776994210 | 4.44° C | 100% | 1017.6 hPa | - | - | - | - |
| 1776993311 | 4.44° C | 100% | 1017.5 hPa | - | - | - | - |
| 1776992412 | 4.44° C | 100% | 1017.8 hPa | - | - | - | - |
| 1776991513 | 5° C | 100% | 1017.7 hPa | - | - | - | - |
| 1776990614 | 5° C | 100% | 1017.6 hPa | - | - | - | - |
| 1776989715 | 5° C | 100% | 1017.7 hPa | - | - | - | - |
| 1776988816 | 5° C | 100% | 1017.9 hPa | - | - | - | - |
| 1776987917 | 5.56° C | 100% | 1017.9 hPa | - | - | - | - |
| 1776987018 | 5° C | 100% | 1018 hPa | - | - | - | - |
| 1776986119 | 6.11° C | 100% | 1018.1 hPa | - | - | - | - |
| 1776985219 | 6.11° C | 100% | 1018.2 hPa | - | - | - | - |
| 1776984321 | 6.67° C | 100% | 1018.3 hPa | - | - | - | - |
| 1776983422 | 6.67° C | 100% | 1018.4 hPa | - | - | - | - |
| 1776982522 | 7.22° C | 100% | 1018.5 hPa | - | - | - | - |
| 1776981623 | 7.78° C | 100% | 1018.4 hPa | - | - | - | - |
* Rain since midnight (hover to see other rain measurements)
** Current wind speed in m/s (hover to see current wind gust speed)